Weather History for Lawrence, MA

Change the Weather History Date:

Saturday, March 8, 2014

  Actual Average Record
Temperature  
Mean Temperature 37 °F -  
Max Temperature 51 °F 42 °F 70 °F (2012)
Min Temperature 23 °F 24 °F -3 °F (1936)
Degree Days  
Heating Degree Days 28    
Moisture  
Dew Point 21 °F    
Average Humidity 55    
Maximum Humidity 85    
Minimum Humidity 29    
Precipitation  
Precipitation 0.00 in - - ()
Sea Level Pressure  
Sea Level Pressure 29.82 in    
Wind  
Wind Speed 3 mph (NW)    
Max Wind Speed 14 mph    
Max Gust Speed 23 mph    
Visibility 10 miles    
Events      
Averages and records for this station are not official NWS values.
T = Trace of Precipitation, MM = Missing Value Source: NWS Daily Summary

Daily Weather History Graph

Daily Weather History Graph

Search for Another Location

Airport:

Trip Planner

Search our weather history database for the weather conditions in past years. The results will help you decide how hot, cold, wet, or windy it might be!

Date:

Astronomy

Mar. 08, 2014 Rise Set
Actual Time 6:08 AM EST 5:42 PM EST
Civil Twilight 5:40 AM EST 6:10 PM EST
Nautical Twilight 5:07 AM EST 6:43 PM EST
Astronomical Twilight 4:34 AM EST 7:16 PM EST
Moon 10:38 AM EST (3/8) 12:46 AM EST (3/8)
Length of Visible Light 12h 30m
Length of Day
11h 33m
First Quarter, 51% of the Moon is Illuminated
Mar 8
First Quarter
Mar 16
Full
Mar 23
Last Quarter
Mar 30
New
Apr 7
First Quarter

Hourly Weather History & Observations

Time (EST) Temp. Windchill Dew Point Humidity Pressure Visibility Wind Dir Wind Speed Gust Speed Precip Events Conditions
12:54 AM 30.0 °F - 21.9 °F 72% 29.95 in 10.0 mi Calm Calm - N/A   Mostly Cloudy
1:54 AM 27.0 °F - 21.0 °F 78% 29.92 in 10.0 mi Calm Calm - N/A   Clear
2:54 AM 26.1 °F 21.9 °F 19.9 °F 78% 29.88 in 10.0 mi NW 3.5 mph - N/A   Clear
3:54 AM 25.0 °F - 18.0 °F 75% 29.86 in 10.0 mi Calm Calm - N/A   Clear
4:54 AM 24.1 °F - 19.0 °F 81% 29.85 in 10.0 mi Calm Calm - N/A   Clear
5:54 AM 23.0 °F - 19.0 °F 85% 29.84 in 10.0 mi Calm Calm - N/A   Clear
6:54 AM 25.0 °F 20.7 °F 19.0 °F 78% 29.83 in 10.0 mi SSW 3.5 mph - N/A   Clear
7:54 AM 28.0 °F - 21.0 °F 75% 29.83 in 10.0 mi Calm Calm - N/A   Clear
8:54 AM 34.0 °F - 19.0 °F 54% 29.81 in 10.0 mi Calm Calm - N/A   Clear
9:54 AM 39.0 °F 36.8 °F 21.0 °F 49% 29.81 in 10.0 mi Variable 3.5 mph - N/A   Scattered Clouds
10:54 AM 42.1 °F 40.2 °F 19.9 °F 41% 29.78 in 10.0 mi West 3.5 mph - N/A   Mostly Cloudy
11:54 AM 46.0 °F 44.8 °F 19.0 °F 34% 29.76 in 10.0 mi WNW 3.5 mph - N/A   Overcast
12:54 PM 48.0 °F - 19.0 °F 32% 29.73 in 10.0 mi North 5.8 mph - N/A   Clear
1:54 PM 48.9 °F - 19.0 °F 31% 29.72 in 10.0 mi NNW 6.9 mph - N/A   Clear
2:54 PM 48.0 °F - 21.0 °F 34% 29.71 in 10.0 mi NNE 4.6 mph - N/A   Clear
3:54 PM 51.1 °F - 19.9 °F 29% 29.72 in 10.0 mi NNW 5.8 mph - N/A   Scattered Clouds
4:54 PM 48.9 °F - 21.0 °F 33% 29.74 in 10.0 mi NNW 8.1 mph - N/A   Mostly Cloudy
5:54 PM 45.0 °F 38.5 °F 21.9 °F 40% 29.79 in 10.0 mi NNW 13.8 mph 23.0 mph N/A   Overcast
6:54 PM 42.1 °F 36.1 °F 24.1 °F 49% 29.81 in 10.0 mi NW 10.4 mph - N/A   Overcast
7:54 PM 39.9 °F 34.5 °F 24.1 °F 53% 29.84 in 10.0 mi NNW 8.1 mph - N/A   Clear
8:54 PM 37.0 °F 30.4 °F 23.0 °F 57% 29.86 in 10.0 mi NNW 9.2 mph - N/A   Clear
9:54 PM 37.0 °F 31.6 °F 21.0 °F 52% 29.87 in 10.0 mi NNW 6.9 mph - N/A   Scattered Clouds
10:54 PM - - - N/A% 29.87 in 10.0 mi NNW 9.2 mph - N/A   Scattered Clouds
11:54 PM - - - N/A% 29.88 in 10.0 mi NW 8.1 mph - N/A   Clear